    Epoch 1999 July 1.0 TT = JDT 2451360.5
    T 1999 July 18.66734 TT                                 MPC
    q   1.2227017            (2000.0)            P               Q
    n   0.18551594     Peri.  356.37392     +0.88218928     -0.40358748
    a   3.0447284      Node    31.25150     +0.44294928     +0.53637743
    e   0.5984201      Incl.   27.88117     +0.15980619     +0.74122629
    P   5.31
    
    Epoch 2004 Nov. 11.0 TT = JDT 2453320.5
    T 2004 Nov. 10.28313 TT                                 MPC
    q   1.2276345            (2000.0)            P               Q
    n   0.18516734     Peri.  356.36230     +0.88227181     -0.40357720
    a   3.0485486      Node    31.25260     +0.44282718     +0.53691473
    e   0.5973052      Incl.   27.84483     +0.15968888     +0.74084278
    P   5.32
    Residuals in seconds of arc
    900323 261  0.2+  0.3-    041015 423  0.2-  0.0     041108 379  0.2-  0.2-
    900323 261  0.0   0.4-    041015 423  0.0   0.0     041108 379  0.5+  0.1-
    000315 704  0.6+  0.5+    041015 423  0.1-  0.1+    041108 379  0.1+  0.1-
    000315 704  0.1-  0.2+    041015 423  0.2+  0.1-    041108 379  0.0   0.3-
    000315 704  0.3+  0.3+    041018 452  0.1+  0.3+    041108 379  0.4+  0.2-
    000315 704  1.1-  1.3+    041018 452  0.2+  0.0     041108 379  0.4-  0.0
    000326 704  0.2+  0.0     041018 452  0.1-  0.1+    041108 379  0.1-  0.3-
    000326 704  0.2-  0.5+    041018 452  0.1+  0.1-    041108 379  0.4+  0.3-
    000326 704  0.4+  0.0     041018 452  0.1+  0.0     041109 379  0.2-  0.1-
    000326 704  0.2+  0.6+    041023 423  0.1+  0.2-    041109 379  0.5-  0.5-
    000410 699  0.4+  0.6+    041023 423  0.1+  0.1-    041109 379  0.4-  0.5-
    000410 699  0.0   0.2-    041023 423  0.0   0.1+    041109 379  0.0   0.6-
    000410 699  0.6-  0.2-    041023 423  0.1+  0.2-    041109 379  0.5-  0.3-
    000410 699  0.7-  0.1-    041023 423  0.0   0.2-    041109 379  0.2+  0.1+
    000430 704  0.3+  0.0     041030 952  0.1-  0.2-    041109 379  0.2+  0.0
    000430 704  1.2+  1.5+    041030 952  0.3-  0.0     041110 I77  0.1+  0.0
    000430 704  0.4+  0.3-    041030 952  0.4-  0.3-    041110 I77  0.2-  0.4-
    000430 704  1.3+  1.2+    041030 952  0.4-  0.0     041110 I77  0.5+  0.1+
    010323 608  0.4+  0.3-    041030 952  0.6-  0.2+    041110 I77  0.2+  0.2+
    010323 608  1.0+  0.2+    041030 952  0.4-  0.2-    041111 704  0.1-  0.9+
    010323 608  1.2+  0.5-    041030 952  0.4-  0.0     041111 704  0.1-  0.8+
    010414 608  0.8+  0.0     041101 379  0.2+  0.2-    041111 704  0.2+  1.0+
    010414 608  1.1+  0.5+    041101 379  0.0   0.2-    041111 704  0.5-  1.1+
    010414 608  1.4+  1.6+    041101 379  0.1-  0.5-    041111 704  0.2-  1.2+
    020408 644  0.1+  0.1+    041101 379  0.4+  0.3-    041112 I05  0.2+  0.0
    020408 644  0.1+  0.9+    041101 379  0.4+  0.3-    041112 I05  0.1-  0.1+
    020408 644  0.1+  0.3+    041101 379  0.3+  0.3-    041112 I05  0.1+  0.1-
    020409 644  0.5+  0.4+    041101 379  0.2+  0.3-    041112 I05  0.2+  0.0
    020409 644  0.1+  0.6+    041102 379  0.4-  0.3-    041112 379  0.3-  0.3+
    020409 644  0.5+  0.8+    041102 379  0.5-  0.6-    041112 379  0.6+  0.4-
    020414 644  0.3+  0.4+    041102 379  0.2+  0.1+    041112 379  0.4+  0.2-
    020414 644  0.6+  0.6+    041102 379  0.1-  0.3-    041112 379  0.1-  0.0
    020414 644  0.4-  0.7+    041102 379  0.1-  0.0     041112 379  0.3+  0.6+
    020509 644  0.4-  0.2+    041102 379  0.5-  0.2+    041112 J87  0.5+  0.9+
    020509 644  0.3+  0.8+    041102 379  0.1+  0.5-    041112 J87  0.4+  0.5+
    020509 644  0.7+  0.4+    041102 379  0.5-  0.1+    041112 J87  0.5+  0.6+
    020518 644  0.7-  0.0     041102 379  0.2-  0.2+    041112 213  0.8-  0.2-
    020518 644  0.3+  0.4+    041103 423  0.1-  0.0     041112 213  0.2+  0.5+
    020518 644  0.2-  0.1+    041103 423  0.0   0.0     041112 213  0.3+  0.3+
    030124 809 (1.4+  2.1+)   041103 423  0.1-  0.0     041112 941  0.1+  0.2+
    030124 809  0.7+  0.8+    041103 423  0.0   0.0     041112 941  0.1+  0.4+
    030124 809  0.5-  0.2-    041103 423  0.0   0.1-    041112 941  0.3+  0.2+
    041010 E12  0.1+  0.1+    041103 423  0.0   0.1-    041112 941  0.1+  0.2+
    041010 E12  0.1-  0.0     041103 355  0.0   0.1-    041113 927 (4.2+ 17.6+)
    041010 E12  0.1-  0.1+    041103 355  0.1-  0.0     041113 927 (0.5+ 19.3+)
    041010 E12  0.1-  0.1+    041103 355  0.1+  0.3+    041113 927 (3.8+ 15.4+)
    041010 E12  0.1+  0.0     041103 355  0.0   0.1-    041113 D70  0.2+  0.4+
    041010 E12  0.1+  0.2-    041104 379  0.4+  0.4-    041113 D70  0.1+  0.5+
    041010 E12  0.4+  0.2+    041104 379  0.4+  0.3-    041113 D70  0.1-  0.2-
    041010 E12  0.2-  0.0     041104 379  0.6+  0.5-    041113 349  0.2-  0.1-
    041010 E12  0.0   0.2+    041104 355  0.3+  0.1-    041113 349  0.2+  0.2-
    041010 E12  0.1-  0.4+    041104 379  0.5+  0.6-    041113 349  0.0   0.1+
    041010 E12  0.2+  0.0     041104 379  0.5+  0.2-    041113 349  0.2-  0.0
    041010 E12  0.1+  0.3+    041104 355  0.2+  0.1+    041113 349  0.0   0.0
    041010 I05  0.4-  0.1+    041104 379  0.1-  0.8-    041113 941  0.1+  0.1+
    041010 I05  0.4-  0.2+    041104 379  0.3+  0.2-    041113 941  0.1+  0.1+
    041010 I05  0.3-  0.1+    041104 355  0.0   0.0     041113 941  0.2+  0.1-
    041010 I05  0.3-  0.0     041104 379  0.6+  0.7-    041113 941  0.0   0.0
    041010 I05  0.4-  0.1+    041104 355  0.2+  0.0     041113 938  0.1-  0.2-
    041010 I05  0.4-  0.4+    041105 704  0.3-  0.1-    041113 938  0.0   0.1-
    041011 808  0.0   0.8+    041105 699  0.3-  0.4-    041113 938  0.1-  0.2-
    041011 808  0.2-  0.0     041105 704  0.0   0.2-    041113 213  0.1+  0.3+
    041011 808  0.2-  0.1+    041105 699  0.3-  0.6-    041113 939  0.2-  0.6+
    041011 808  0.2+  0.2+    041105 704  0.4-  0.5-    041113 939  0.2-  0.7+
    041011 808 (0.5-  2.0+)   041105 704  0.1-  0.4-    041113 213  0.3-  0.4+
    041011 808  0.4-  0.8+    041105 699  0.1-  0.5-    041113 939  0.1-  0.7+
    041011 808  0.3-  1.9+    041105 704  0.2-  0.4-    041113 213  0.0   0.4+
    041011 808  0.4+  0.8-    041105 699  0.7-  0.5+    041113 213  0.1-  0.3+
    041011 808  0.3-  0.9+    041105 699  0.1-  0.3-    041113 A59  0.3-  1.3-
    041011 E12  0.2-  0.2+    041105 699  0.7-  0.2-    041113 A59  0.8+  1.2-
    041011 E12  0.2+  0.1-    041105 699  0.1-  0.3-    041113 A59  0.8-  0.3-
    041011 E12  0.2+  0.1+    041105 699  0.4-  0.3-    041113 A59 (2.3-  0.1+)
    041011 E12  0.3+  0.2-    041106 670  0.1+  0.0     041113 A06  0.1-  1.0+
    041011 428  0.1+  0.1+    041106 670  0.2+  0.1-    041113 A06  0.5+  1.4+
    041011 428  0.2+  0.1+    041106 670  0.1+  0.1-    041113 A06  0.8+  0.9+
    041011 428  0.0   0.2+    041106 379  0.2+  0.0     041113 A06  0.5+  1.4+
    041011 428  0.7-  0.1+    041106 379  0.3+  0.0     041113 J93  0.3-  0.4+
    041011 423  0.3-  0.1+    041106 379  0.1-  0.1-    041113 J93  0.0   0.2+
    041011 423  0.1+  0.2+    041106 379  0.0   0.0     041113 J93  0.5-  0.1-
    041011 423  0.0   0.2+    041106 379  0.1+  0.4-    041114 850  0.4+  0.2+
    041011 423  0.1+  0.2+    041106 379  0.4+  0.2-    041114 850  0.1-  0.5+
    041011 423  0.1+  0.4+    041106 938  0.1+  0.1-    041114 850  0.4+  0.0
    041011 E12  0.3+  0.2+    041106 938  0.1+  0.1+    041114 170  0.2-  0.2-
    041011 E12  0.0   0.2+    041106 938  0.0   0.1+    041114 170  0.0   0.2-
    041011 E12  0.4-  0.2-    041106 938  0.1+  0.3-    041114 170  0.1+  0.2-
    041012 423  0.0   0.2+    041106 938  0.1+  0.1-    041114 170  0.0   0.3-
    041012 423  0.1-  0.2+    041106 938  0.1+  0.2-    041114 170  0.3-  0.2-
    041012 423  0.1+  0.3+    041107 704  0.7-  0.1+    041114 170  0.3-  0.1-
    041012 423  0.2-  0.1+    041107 704  0.6-  0.8+    041114 170  0.2-  0.1-
    041012 423  0.6-  0.4-    041107 704  0.8-  0.1+    041114 458  0.5+  0.2+
    041012 423  0.0   0.2+    041107 704  0.3+  0.5+    041114 458  0.4+  0.2+
    041012 423  0.4+  0.3+    041107 379  0.8-  0.6-    041114 458  0.3+  0.4+
    041012 I05  0.0   0.4+    041107 379  0.6-  0.7-    041115 415  0.1+  0.2-
    041012 I05  0.0   0.3+    041107 379  0.5-  0.2-    041115 415  0.1-  0.1+
    041012 I05  0.1-  0.3+    041107 379  0.4-  0.4-    041115 415  0.1+  0.3-
    041015 423  0.1-  0.1+    041108 379  0.3+  0.0     041115 415  0.0   0.3-
    
